[[{"header":{"parameterUnit":"m.s-1","parameterCategory":1,"la1":30.2991,"la2":30.254,"lo1":-89.0895,"lo2":-89.0444,"dy":0.0017,"dx":0.0017,"nx":28,"ny":28,"refTime":"2023-10-29T09:00:00:Z","depth":0,"parameterNumber":2,"parameterNumberName":"U-component_of_WINDS"},"data":[0,0,0,0,0,0,0,0,0,0,0,0,0,0,0,0,0,0,0,0,0,0,0,0,0,0,0,0,0,0,0,0,0,0,0,0,0,0,0,0,0,0,0,0,0,0,0,0,0,0,0,0,0,0,0,0,0,0,-2.9027,-2.9028,0,-2.9138,-2.9139,-2.9141,-2.9129,-2.9127,-2.9125,-2.9124,-2.9238,-2.9242,-2.9247,0,0,0,0,0,0,0,0,0,0,0,0,0,-2.8805,-2.8809,-2.9027,-2.9028,-2.903,-2.9138,-2.914,-2.9141,-2.9129,-2.9127,-2.9125,-2.9123,-2.9236,-2.9242,-2.9247,0,0,0,0,0,0,0,0,0,0,0,0,0,-2.8907,-2.881,-2.9027,-2.9037,-2.9039,-2.9138,-2.914,-2.9141,-2.9129,-2.9127,-2.9124,-2.9122,-2.9234,-2.9241,-2.9248,-2.9344,0,0,-2.9269,-2.9273,0,0,0,0,0,0,0,0,-2.8901,-2.8915,-2.9034,-2.9036,-2.9039,-2.9117,-2.9103,-2.9209,-2.913,-2.9095,-2.9123,-2.912,-2.92,-2.9209,-2.9236,-2.935,-2.9354,-2.927,-2.9274,-2.9277,-2.9279,0,0,0,0,0,0,0,-2.8894,-2.891,-2.9071,-2.9036,-2.9038,-2.9036,-2.9048,-2.9123,-2.9161,-2.9098,-2.9097,-2.9111,-2.92,-2.9229,-2.9239,-2.9356,-2.927,-2.9276,-2.928,-2.9283,-2.9554,-2.9557,0,0,0,0,0,0,-2.8885,-2.8905,-2.9067,-2.9074,-2.8962,-2.9042,-2.9055,-2.9094,-2.916,-2.9167,-2.9113,-2.911,-2.9219,-2.923,-2.9243,-2.9359,-2.9277,-2.9284,-2.9288,-2.9551,-2.9555,-2.9558,0,0,0,0,0,0,-2.888,-2.8899,-2.9063,-2.8989,-2.901,-2.9049,-2.9093,-2.9098,-2.9127,-2.9171,-2.9178,-2.9135,-2.9217,-2.9233,-2.9319,-2.9362,-2.9287,-2.9293,-2.9548,-2.9552,-2.9557,-2.9592,0,0,0,0,0,0,-2.8874,-2.8898,-2.8934,-2.899,-2.9014,-2.9137,-2.9096,-2.9102,-2.9139,-2.9136,-2.9194,-2.9201,-2.9216,-2.9309,-2.9326,-2.9371,-2.9299,-2.9544,-2.955,-2.9555,-2.9587,-2.9597,-2.9606,0,0,0,0,0,-2.8866,-2.894,-2.8936,-2.8956,-2.906,-2.914,-2.9153,-2.9169,-2.9142,-2.918,-2.9208,-2.9199,-2.9356,-2.9318,-2.9337,-2.9385,-2.9541,-2.9548,-2.9555,-2.9583,-2.9595,-2.9606,0,0,0,0,0,0,-2.8887,-2.8947,-2.8944,-2.9038,-2.9084,-2.9137,-2.9184,-2.9181,-2.9236,-2.923,-2.9248,-2.9261,-2.9348,-2.9376,-2.9332,-2.9481,-2.9445,-2.9456,-2.946,-2.9472,-2.9481,-2.9471,-2.9305,0,0,0,0,0,-2.8903,-2.8962,-2.9012,-2.909,-2.9113,-2.9145,-2.918,-2.9189,-2.9237,-2.9256,-2.9291,-2.9338,-2.9398,-2.9437,-2.9494,-2.9592,-2.9604,-2.9635,-2.9644,-2.9651,-2.966,-2.9713,-2.9727,-2.958,-2.958,-2.958,0,0,-2.8936,-2.8976,-2.9012,-2.9096,-2.9132,-2.9193,-2.9161,-2.9227,-2.9272,-2.9266,-2.9349,-2.9377,-2.9431,-2.9523,-2.9566,-2.9549,-2.9704,-2.966,-2.9666,-2.967,-2.9722,-2.9735,-2.9748,-2.9585,-2.9584,-2.9583,0,0,-2.9027,-2.9064,-2.9133,-2.917,-2.9226,-2.9247,-2.9264,-2.9319,-2.9337,-2.9421,-2.9417,-2.9472,-2.9575,-2.9613,-2.9646,-2.9754,-2.9747,-2.9772,-2.982,-2.9872,-2.9883,-2.9894,-2.9931,-2.9944,-2.9781,-2.9781,-2.9781,0,-2.906,-2.9152,-2.9169,-2.9235,-2.9272,-2.927,-2.934,-2.9376,-2.9447,-2.9473,-2.9453,-2.9582,-2.9619,-2.9719,-2.9746,-2.9773,-2.9793,-2.9764,-2.988,-2.9891,-2.9901,-2.9936,-2.995,-2.9784,-2.9783,-2.9783,-2.9783,0,-2.919,-2.9254,-2.9303,-2.9372,-2.9415,-2.9483,-2.951,-2.9552,-2.9557,-2.958,-2.9666,-2.971,-2.9776,-2.9802,-2.9808,-2.9904,-2.9892,-2.9876,-2.9839,-2.9917,-2.995,-2.9964,-2.9787,-2.9786,-2.9786,-2.9785,0,0,-2.9294,-2.9374,-2.9391,-2.9423,-2.9485,-2.9535,-2.9603,-2.9668,-2.9703,-2.9754,-2.9811,-2.9899,-2.9885,-2.9923,-2.9934,-2.9979,-3.0061,-2.9958,-2.996,-2.9974,-3.0168,-3.0178,-3.0193,-3.0058,-3.0061,-3.0063,-3.0163,0,-2.939,-2.951,-2.9528,-2.9634,-2.9693,-2.9693,-2.9753,-2.9798,-2.9822,-2.9876,-2.9903,-2.9965,-2.9943,-2.9965,-3.0011,-3.0041,-3.0099,-3.0034,-3.011,-3.0113,-3.0094,-3.0211,-3.0221,-3.0314,-3.0177,-3.0179,-3.0181,0,-2.9516,-2.957,-2.9682,-2.9736,-2.9762,-2.9815,-2.9876,-2.9928,-2.998,-2.9994,-3.0037,-3.0043,-3.0114,-3.0077,-3.0175,-3.0131,-3.0164,-3.0183,-3.0187,-3.0193,-3.0149,-3.0218,-3.0344,-3.0357,-3.0202,-3.02,-3.0199,0,-2.9578,-2.9679,-2.9759,-2.9786,-2.9853,-2.989,-2.992,-2.9969,-3.0007,-3.0062,-3.0086,-3.0149,-3.0182,-3.023,-3.0252,-3.0223,-3.0349,-3.0314,-3.0363,-3.0362,-3.0387,-3.0384,-3.0517,-3.0412,-3.0412,-3.0412,-3.0411,0,-2.9681,-2.9749,-2.9788,-2.9837,-2.9913,-2.9935,-3.001,-3.0039,-3.0083,-3.0137,-3.0143,-3.0194,-3.0222,-3.0277,-3.0296,-3.0374,-3.039,-3.0403,-3.0407,-3.0401,-3.0399,-3.0421,-3.0414,-3.0415,-3.0414,-3.0414,-3.0413,0,-2.9762,-2.9791,-2.9878,-2.9935,-2.9951,-3.0004,-3.0053,-3.0101,-3.0126,-3.0195,-3.0213,-3.0252,-3.0318,-3.0346,-3.0427,-3.044,-3.0529,-3.0529,-3.0511,-3.0511,-3.0558,-3.0552,-3.0707,-3.0728,-3.0611,-3.0612,-3.0613,0,-2.9824,-2.9877,-2.9939,-2.9976,-3.0007,-3.0067,-3.0106,-3.013,-3.017,-3.0234,-3.0274,-3.0341,-3.0394,-3.05,-3.0536,-3.0598,-3.0598,-3.0648,-3.0607,-3.06,-3.0597,-3.0592,-3.0597,-3.0655,-3.0656,-3.0657,-3.0658,0,-2.9931,-2.9943,-2.9999,-3.0061,-3.0108,-3.0157,-3.0206,-3.0236,-3.0268,-3.0314,-3.0381,-3.0423,-3.0506,-3.0572,-3.0637,-3.0668,-3.0668,-3.0671,-3.0685,-3.0678,-3.0665,-3.0671,-3.0529,-3.0666,-3.0665,-3.0665,-3.0664,-3.0664,-3.0003,-3.0049,-3.0101,-3.0163,-3.0203,-3.0249,-3.0296,-3.0328,-3.0385,-3.0454,-3.0465,-3.0537,-3.0589,-3.0676,-3.071,-3.0767,-3.0754,-3.0775,-3.078,-3.0784,-3.0786,-3.0659,-3.0779,-3.0779,-3.0779,-3.0779,-3.0778,0,-3.0108,-3.0142,-3.0199,-3.0267,-3.0317,-3.0314,-3.0369,-3.041,-3.0473,-3.0522,-3.0575,-3.0653,-3.0717,-3.0759,-3.0824,-3.0861,-3.0863,-3.0877,-3.0873,-3.088,-3.0795,-3.0775,-3.0875,-3.0875,-3.0875,-3.0874,-3.0874,-3.0874,-3.0168,-3.0246,-3.0265,-3.0363,-3.0397,-3.0467,-3.0498,-3.0541,-3.0579,-3.0666,-3.0719,-3.0747,-3.0793,-3.0861,-3.092,-3.0931,-3.0953,-3.0968,-3.0978,-3.0896,-3.0886,-3.0877,-3.0858,-3.0973,-3.0974,-3.1058,-3.1059,-3.106]},{"header":{"parameterUnit":"m.s-1","parameterCategory":1,"la1":30.2991,"la2":30.254,"lo1":-89.0895,"lo2":-89.0444,"dy":0.0017,"dx":0.0017,"nx":28,"ny":28,"refTime":"2023-10-29T09:00:00:Z","depth":0,"parameterNumber":3,"parameterNumberName":"V-component_of_WINDS"},"data":[0,0,0,0,0,0,0,0,0,0,0,0,0,0,0,0,0,0,0,0,0,0,0,0,0,0,0,0,0,0,0,0,0,0,0,0,0,0,0,0,0,0,0,0,0,0,0,0,0,0,0,0,0,0,0,0,0,0,1.7395,1.7396,0,1.7464,1.7465,1.7466,1.742,1.7418,1.7416,1.7414,1.7483,1.7487,1.749,0,0,0,0,0,0,0,0,0,0,0,0,0,1.7223,1.7227,1.7395,1.7396,1.7397,1.7464,1.7465,1.7466,1.7421,1.7418,1.7416,1.7413,1.7482,1.7486,1.7491,0,0,0,0,0,0,0,0,0,0,0,0,0,1.7296,1.7228,1.7395,1.7382,1.7382,1.7464,1.7465,1.7466,1.7421,1.7418,1.7415,1.7412,1.748,1.7486,1.7491,1.7589,0,0,1.7509,1.7511,0,0,0,0,0,0,0,0,1.7292,1.7302,1.7383,1.7383,1.7383,1.7431,1.743,1.7507,1.7422,1.7406,1.7414,1.7411,1.7468,1.7474,1.7494,1.7592,1.7595,1.7509,1.7513,1.7515,1.7517,0,0,0,0,0,0,0,1.7287,1.7299,1.7422,1.7385,1.7384,1.7373,1.738,1.7444,1.7454,1.7407,1.7404,1.7413,1.7467,1.7489,1.7495,1.7596,1.7509,1.7514,1.7518,1.752,1.778,1.7783,0,0,0,0,0,0,1.7283,1.7295,1.742,1.7424,1.7329,1.7379,1.7386,1.7418,1.7453,1.7455,1.7416,1.7411,1.7481,1.7489,1.7498,1.7616,1.7515,1.752,1.7524,1.7776,1.778,1.7784,0,0,0,0,0,0,1.7279,1.7295,1.7417,1.7359,1.7374,1.7385,1.7421,1.7421,1.7443,1.7459,1.7461,1.7436,1.7479,1.749,1.7567,1.7617,1.7523,1.7528,1.7772,1.7777,1.7782,1.7851,0,0,0,0,0,0,1.7275,1.7294,1.7331,1.736,1.7377,1.7486,1.7424,1.7425,1.7453,1.7447,1.7479,1.7481,1.7477,1.7559,1.7573,1.7623,1.7532,1.7768,1.7774,1.7781,1.7844,1.7858,1.787,0,0,0,0,0,1.7269,1.7346,1.7333,1.7348,1.7424,1.7489,1.7499,1.7493,1.7457,1.7495,1.7506,1.748,1.761,1.7567,1.7583,1.7635,1.7764,1.7773,1.778,1.7839,1.7855,1.787,0,0,0,0,0,0,1.7321,1.735,1.7335,1.7425,1.7455,1.7481,1.7528,1.7511,1.7551,1.7544,1.7534,1.7542,1.7623,1.7637,1.7589,1.7733,1.7681,1.7693,1.7721,1.7737,1.7749,1.7744,1.7537,0,0,0,0,0,1.7343,1.7394,1.7416,1.7493,1.751,1.7517,1.7545,1.7538,1.7569,1.7581,1.7597,1.7628,1.7675,1.7707,1.7751,1.7846,1.7853,1.789,1.7903,1.7913,1.7923,1.7976,1.7993,1.781,1.781,1.781,0,0,1.7389,1.7411,1.7444,1.7505,1.7527,1.758,1.7527,1.7585,1.7625,1.7589,1.7664,1.7678,1.7711,1.7798,1.7837,1.7812,1.7976,1.7924,1.7932,1.7936,1.7986,1.8003,1.8019,1.7816,1.7815,1.7814,0,0,1.75,1.7522,1.7589,1.7613,1.7649,1.7654,1.767,1.77,1.7708,1.7783,1.7758,1.7804,1.7886,1.7912,1.7935,1.8059,1.8037,1.8074,1.814,1.8191,1.8206,1.8218,1.8263,1.828,1.8083,1.8083,1.8084,0,1.7552,1.7632,1.7625,1.7686,1.7714,1.7686,1.7755,1.7779,1.7827,1.7847,1.7818,1.7922,1.7942,1.8036,1.8066,1.8086,1.8104,1.807,1.8204,1.8217,1.8229,1.8272,1.8288,1.8088,1.8087,1.8087,1.8086,0,1.7695,1.775,1.78,1.7849,1.7883,1.7947,1.7951,1.7986,1.7977,1.7985,1.8063,1.8086,1.8136,1.8158,1.8149,1.8251,1.8234,1.8205,1.8153,1.8251,1.8291,1.8307,1.8094,1.8092,1.8091,1.809,0,0,1.7839,1.7885,1.7904,1.7927,1.7965,1.8008,1.8071,1.8121,1.8152,1.8187,1.824,1.8311,1.8285,1.8312,1.8306,1.8352,1.845,1.8317,1.8318,1.8342,1.8565,1.8587,1.8606,1.8436,1.8439,1.8441,1.8562,0,1.7952,1.8064,1.8062,1.8165,1.8217,1.8193,1.8248,1.8278,1.8288,1.8333,1.8343,1.8395,1.8356,1.8372,1.8416,1.8428,1.8494,1.842,1.8485,1.8488,1.8478,1.8627,1.8649,1.8763,1.8578,1.858,1.8582,0,1.8099,1.8141,1.825,1.8283,1.8305,1.8355,1.8402,1.8445,1.8479,1.8483,1.8515,1.8502,1.8567,1.8514,1.8604,1.8553,1.858,1.859,1.8595,1.86,1.8541,1.8637,1.8798,1.8816,1.8607,1.8605,1.8603,0,1.8194,1.8278,1.8354,1.8374,1.8414,1.8451,1.8469,1.85,1.8531,1.8571,1.8591,1.8639,1.8665,1.8702,1.8703,1.8664,1.8794,1.8741,1.8799,1.8799,1.8827,1.8826,1.8996,1.8844,1.8844,1.8844,1.8843,0,1.8322,1.839,1.8398,1.8445,1.8521,1.8518,1.8593,1.8608,1.8636,1.8686,1.8668,1.8715,1.8713,1.8761,1.8762,1.8837,1.8848,1.8853,1.8853,1.8855,1.8855,1.8873,1.8865,1.8848,1.8847,1.8846,1.8846,0,1.844,1.8448,1.8531,1.8563,1.8573,1.8627,1.8655,1.87,1.8709,1.8772,1.8787,1.8801,1.8856,1.8861,1.8925,1.8926,1.9017,1.9007,1.9006,1.9004,1.9063,1.9058,1.9251,1.9277,1.9108,1.911,1.9111,0,1.8521,1.8573,1.8612,1.8644,1.8665,1.8718,1.875,1.875,1.8784,1.8828,1.8868,1.8922,1.8966,1.9056,1.9071,1.9121,1.9112,1.9177,1.912,1.9121,1.9114,1.9111,1.9117,1.9188,1.919,1.9191,1.9192,0,1.8663,1.8665,1.8713,1.8763,1.8802,1.8841,1.8878,1.8905,1.891,1.8949,1.9007,1.9041,1.9108,1.9162,1.9211,1.9229,1.9212,1.9211,1.9227,1.923,1.9227,1.923,1.9037,1.9206,1.9205,1.9204,1.9203,1.9202,1.8765,1.8812,1.8847,1.8901,1.8929,1.8964,1.9009,1.9024,1.9073,1.9128,1.9125,1.9189,1.9223,1.9287,1.931,1.936,1.9338,1.9361,1.9367,1.9373,1.938,1.922,1.9368,1.9368,1.9368,1.9367,1.9367,0,1.8907,1.893,1.898,1.9033,1.9076,1.9057,1.9097,1.9134,1.9191,1.9225,1.9269,1.9336,1.939,1.941,1.9463,1.9499,1.9492,1.9512,1.951,1.9515,1.9396,1.9377,1.9517,1.9517,1.9517,1.9517,1.9517,1.9517,1.8986,1.9064,1.9071,1.9163,1.9184,1.9248,1.9272,1.9305,1.9332,1.9409,1.9454,1.9467,1.9496,1.9551,1.9599,1.9604,1.9624,1.9648,1.9649,1.9538,1.9523,1.9508,1.949,1.9652,1.9653,1.9764,1.9765,1.9766]}]]